QPF
0.15 0.15 0.17 0.15 0.14 0.12 0.10 0.10 0.11 0.11 0.16 0.14 0.14 0.14 0.12 0.12 0.13 0.15 0.10 0.10 0.09 0.12 0.14 0.11 0.07 0.06 0.05 0.05 0.06 0.05 0.04 0.03 0.02 0.01 0.01 0.01 0.01 0.01 0.01 0.01 0.01 0.01 0.01
0.16 0.14 0.16 0.15 0.14 0.14 0.14 0.13 0.09 0.10 0.11 0.14 0.19 0.19 0.11 0.09 0.11 0.15 0.14 0.11 0.10 0.10 0.11 0.10 0.09 0.07 0.07 0.07 0.07 0.06 0.05 0.04 0.04 0.03 0.02 0.01 0.01 0.01 0.01 0.01 0.01 0.01 0.02
0.15 0.16 0.17 0.15 0.15 0.15 0.15 0.11 0.07 0.08 0.08 0.08 0.11 0.15 0.14 0.14 0.11 0.09 0.14 0.14 0.09 0.09 0.08 0.09 0.10 0.09 0.08 0.07 0.07 0.07 0.07 0.06 0.06 0.05 0.05 0.04 0.02 0.02 0.02 0.02 0.02 0.02 0.02
0.15 0.14 0.15 0.14 0.14 0.14 0.15 0.15 0.11 0.09 0.07 0.07 0.08 0.08 0.10 0.17 0.13 0.07 0.09 0.10 0.07 0.07 0.09 0.08 0.09 0.09 0.09 0.09 0.09 0.08 0.07 0.07 0.07 0.06 0.07 0.06 0.04 0.04 0.04 0.03 0.02 0.02 0.02
0.16 0.13 0.13 0.13 0.14 0.13 0.14 0.14 0.15 0.10 0.08 0.08 0.08 0.07 0.07 0.11 0.13 0.08 0.07 0.07 0.07 0.06 0.07 0.07 0.09 0.09 0.10 0.11 0.12 0.13 0.14 0.12 0.08 0.06 0.06 0.06 0.06 0.05 0.03 0.03 0.02 0.02 0.02
0.14 0.14 0.16 0.17 0.14 0.13 0.13 0.12 0.12 0.09 0.07 0.08 0.07 0.07 0.08 0.08 0.08 0.10 0.08 0.08 0.07 0.06 0.07 0.07 0.08 0.08 0.10 0.11 0.11 0.11 0.12 0.12 0.12 0.10 0.08 0.07 0.05 0.04 0.03 0.03 0.03 0.02 0.02
0.13 0.14 0.13 0.13 0.11 0.12 0.12 0.10 0.10 0.11 0.10 0.09 0.08 0.07 0.06 0.07 0.07 0.06 0.07 0.09 0.09 0.08 0.07 0.08 0.07 0.07 0.08 0.10 0.09 0.10 0.10 0.11 0.13 0.12 0.11 0.08 0.05 0.04 0.03 0.04 0.04 0.04 0.03
0.13 0.13 0.11 0.12 0.10 0.10 0.09 0.09 0.09 0.09 0.09 0.09 0.09 0.10 0.08 0.07 0.05 0.05 0.06 0.07 0.07 0.07 0.06 0.05 0.05 0.05 0.07 0.08 0.07 0.08 0.09 0.10 0.10 0.11 0.11 0.10 0.09 0.07 0.05 0.06 0.07 0.06 0.05
0.11 0.12 0.11 0.10 0.10 0.08 0.08 0.09 0.10 0.11 0.10 0.10 0.09 0.10 0.10 0.08 0.07 0.05 0.03 0.04 0.05 0.05 0.06 0.06 0.07 0.09 0.08 0.07 0.07 0.07 0.08 0.09 0.10 0.11 0.10 0.10 0.10 0.09 0.09 0.09 0.08 0.08 0.08
0.08 0.08 0.09 0.08 0.09 0.08 0.08 0.07 0.07 0.08 0.07 0.08 0.09 0.08 0.07 0.06 0.06 0.05 0.03 0.04 0.05 0.05 0.05 0.06 0.08 0.12 0.13 0.10 0.07 0.06 0.07 0.07 0.09 0.12 0.13 0.12 0.11 0.11 0.10 0.11 0.10 0.09 0.10
0.07 0.08 0.08 0.05 0.06 0.06 0.05 0.05 0.05 0.05 0.05 0.05 0.05 0.07 0.07 0.06 0.06 0.05 0.03 0.02 0.03 0.04 0.04 0.04 0.05 0.06 0.08 0.08 0.06 0.06 0.06 0.06 0.08 0.09 0.09 0.09 0.10 0.12 0.13 0.15 0.16 0.15 0.14
0.06 0.05 0.04 0.03 0.04 0.04 0.03 0.03 0.04 0.03 0.03 0.04 0.04 0.04 0.06 0.06 0.05 0.06 0.05 0.03 0.03 0.03 0.04 0.04 0.04 0.04 0.05 0.06 0.06 0.06 0.05 0.06 0.06 0.06 0.06 0.05 0.06 0.08 0.14 0.16 0.17 0.17 0.16
0.06 0.05 0.04 0.03 0.03 0.03 0.02 0.02 0.02 0.02 0.03 0.03 0.03 0.03 0.03 0.04 0.05 0.06 0.06 0.04 0.02 0.02 0.02 0.03 0.05 0.05 0.06 0.06 0.07 0.08 0.07 0.07 0.06 0.06 0.05 0.05 0.05 0.06 0.09 0.12 0.13 0.14 0.16
0.08 0.07 0.05 0.04 0.03 0.02 0.01 0.01 0.01 0.02 0.02 0.02 0.01 0.01 0.02 0.03 0.04 0.05 0.05 0.05 0.04 0.02 0.02 0.02 0.04 0.05 0.04 0.04 0.06 0.08 0.08 0.07 0.06 0.05 0.05 0.05 0.05 0.05 0.06 0.08 0.12 0.16 0.18
0.05 0.06 0.06 0.06 0.04 0.02 0.02 0.01 0.01 0.01 0.01 0.01 0.01 0.01 0.01 0.02 0.03 0.03 0.04 0.04 0.04 0.03 0.02 0.02 0.03 0.03 0.04 0.04 0.05 0.05 0.05 0.05 0.05 0.06 0.06 0.05 0.05 0.05 0.06 0.07 0.08 0.10 0.12
0.03 0.03 0.03 0.03 0.03 0.02 0.01 0.01 0.01 0.00 0.01 0.01 0.00 0.00 0.00 0.01 0.02 0.02 0.03 0.04 0.04 0.03 0.02 0.02 0.02 0.04 0.04 0.04 0.04 0.04 0.05 0.06 0.07 0.07 0.07 0.06 0.05 0.05 0.05 0.06 0.08 0.08 0.09
0.01 0.01 0.01 0.01 0.01 0.01 0.00 0.00 0.00 0.00 0.00 0.00 0.00 0.01 0.00 0.01 0.01 0.01 0.02 0.03 0.04 0.03 0.03 0.02 0.02 0.03 0.04 0.04 0.04 0.04 0.05 0.05 0.06 0.06 0.05 0.04 0.04 0.05 0.06 0.07 0.07 0.07 0.07
0.00 0.00 0.00 0.00 0.01 0.00 0.00 0.00 0.00 0.00 0.00 0.01 0.01 0.01 0.00 0.01 0.01 0.01 0.02 0.03 0.04 0.04 0.05 0.05 0.04 0.04 0.04 0.05 0.05 0.05 0.06 0.05 0.04 0.05 0.04 0.03 0.03 0.04 0.05 0.06 0.06 0.07 0.08
0.00 0.00 0.00 0.00 0.01 0.01 0.00 0.00 0.00 0.00 0.00 0.01 0.01 0.02 0.02 0.03 0.02 0.02 0.02 0.02 0.03 0.04 0.05 0.06 0.07 0.07 0.06 0.04 0.04 0.03 0.03 0.03 0.04 0.05 0.04 0.03 0.02 0.02 0.02 0.03 0.05 0.06 0.07
0.00 0.00 0.01 0.01 0.00 0.01 0.00 0.00 0.00 0.01 0.00 0.01 0.01 0.02 0.05 0.07 0.05 0.05 0.04 0.03 0.04 0.04 0.05 0.06 0.07 0.08 0.07 0.05 0.04 0.03 0.03 0.03 0.03 0.04 0.04 0.03 0.02 0.02 0.02 0.02 0.02 0.03 0.04
0.00 0.00 0.01 0.01 0.00 0.00 0.00 0.00 0.00 0.01 0.00 0.00 0.00 0.01 0.02 0.04 0.06 0.06 0.05 0.04 0.04 0.04 0.04 0.05 0.05 0.06 0.06 0.05 0.04 0.03 0.02 0.02 0.02 0.02 0.03 0.02 0.02 0.01 0.01 0.01 0.01 0.01 0.01
0.00 0.00 0.01 0.00 0.00 0.00 0.00 0.00 0.00 0.00 0.01 0.00 0.00 0.00 0.01 0.02 0.03 0.05 0.06 0.06 0.04 0.03 0.04 0.05 0.04 0.04 0.04 0.03 0.03 0.03 0.02 0.02 0.02 0.02 0.02 0.02 0.01 0.01 0.01 0.00 0.01 0.01 0.01
0.00 0.00 0.00 0.00 0.00 0.00 0.00 0.00 0.00 0.00 0.01 0.01 0.01 0.01 0.01 0.01 0.02 0.02 0.03 0.04 0.05 0.04 0.04 0.05 0.05 0.03 0.03 0.03 0.02 0.02 0.02 0.02 0.02 0.02 0.02 0.02 0.01 0.02 0.01 0.01 0.01 0.01 0.01
0.01 0.00 0.00 0.00 0.00 0.00 0.00 0.00 0.00 0.01 0.01 0.01 0.01 0.01 0.01 0.01 0.02 0.03 0.03 0.02 0.03 0.03 0.04 0.04 0.05 0.03 0.03 0.03 0.03 0.02 0.03 0.03 0.02 0.03 0.03 0.02 0.02 0.01 0.01 0.01 0.01 0.01 0.01
0.01 0.01 0.01 0.00 0.00 0.00 0.00 0.00 0.01 0.01 0.02 0.01 0.01 0.01 0.01 0.01 0.02 0.03 0.03 0.03 0.03 0.02 0.03 0.05 0.06 0.05 0.04 0.04 0.04 0.03 0.03 0.03 0.02 0.02 0.02 0.01 0.01 0.01 0.00 0.00 0.01 0.01 0.01
0.01 0.01 0.01 0.00 0.00 0.00 0.00 0.00 0.01 0.01 0.02 0.02 0.01 0.01 0.01 0.01 0.02 0.03 0.03 0.03 0.02 0.02 0.02 0.03 0.05 0.06 0.04 0.04 0.04 0.03 0.04 0.03 0.02 0.02 0.01 0.01 0.01 0.00 0.00 0.00 0.00 0.00 0.00
MSLP
1018.44 1018.34 1018.21 1018.10 1018.03 1018.05 1018.14 1018.28 1018.44 1018.58 1018.67 1018.69 1018.64 1018.54 1018.40 1018.27 1018.17 1018.10 1018.09 1018.11 1018.16 1018.23 1018.32 1018.41 1018.51 1018.62 1018.74 1018.87 1019.01 1019.14 1019.26 1019.37 1019.49 1019.61 1019.75 1019.91 1020.10 1020.31 1020.54 1020.74 1020.92 1021.06 1021.15
1018.44 1018.31 1018.15 1018.02 1017.95 1017.96 1018.04 1018.18 1018.33 1018.47 1018.56 1018.59 1018.55 1018.45 1018.33 1018.20 1018.08 1018.00 1017.96 1017.96 1017.98 1018.03 1018.10 1018.17 1018.26 1018.35 1018.44 1018.53 1018.62 1018.71 1018.80 1018.89 1018.99 1019.12 1019.28 1019.49 1019.72 1019.97 1020.23 1020.47 1020.68 1020.84 1020.97
1018.32 1018.17 1018.01 1017.89 1017.84 1017.88 1017.98 1018.13 1018.30 1018.44 1018.54 1018.57 1018.54 1018.46 1018.34 1018.22 1018.10 1018.00 1017.94 1017.91 1017.91 1017.93 1017.97 1018.03 1018.08 1018.14 1018.20 1018.25 1018.29 1018.32 1018.36 1018.42 1018.50 1018.63 1018.80 1019.02 1019.28 1019.57 1019.86 1020.13 1020.37 1020.58 1020.76
1018.09 1017.95 1017.82 1017.74 1017.74 1017.82 1017.96 1018.14 1018.32 1018.48 1018.59 1018.63 1018.62 1018.55 1018.45 1018.33 1018.22 1018.12 1018.05 1018.00 1017.98 1017.99 1018.01 1018.04 1018.07 1018.09 1018.10 1018.09 1018.06 1018.03 1018.01 1018.00 1018.04 1018.14 1018.30 1018.52 1018.79 1019.09 1019.40 1019.70 1019.99 1020.25 1020.50
1017.81 1017.69 1017.60 1017.59 1017.65 1017.79 1017.98 1018.19 1018.40 1018.58 1018.70 1018.76 1018.76 1018.72 1018.64 1018.54 1018.44 1018.36 1018.29 1018.25 1018.23 1018.23 1018.24 1018.25 1018.25 1018.23 1018.18 1018.09 1017.99 1017.86 1017.75 1017.66 1017.63 1017.66 1017.78 1017.97 1018.22 1018.52 1018.85 1019.18 1019.51 1019.84 1020.17
1017.53 1017.45 1017.42 1017.48 1017.61 1017.80 1018.04 1018.29 1018.52 1018.71 1018.85 1018.93 1018.95 1018.94 1018.89 1018.83 1018.76 1018.71 1018.67 1018.65 1018.65 1018.65 1018.67 1018.66 1018.63 1018.56 1018.44 1018.27 1018.06 1017.82 1017.58 1017.38 1017.24 1017.19 1017.23 1017.36 1017.58 1017.87 1018.20 1018.57 1018.95 1019.36 1019.79
1017.31 1017.27 1017.31 1017.42 1017.61 1017.86 1018.13 1018.40 1018.65 1018.86 1019.01 1019.11 1019.17 1019.19 1019.19 1019.17 1019.16 1019.15 1019.16 1019.17 1019.20 1019.23 1019.26 1019.25 1019.19 1019.06 1018.86 1018.58 1018.24 1017.87 1017.48 1017.13 1016.86 1016.69 1016.63 1016.70 1016.87 1017.15 1017.49 1017.90 1018.35 1018.84 1019.38
1017.18 1017.19 1017.28 1017.44 1017.67 1017.95 1018.24 1018.53 1018.79 1019.01 1019.18 1019.31 1019.40 1019.47 1019.52 1019.56 1019.59 1019.64 1019.70 1019.76 1019.83 1019.89 1019.93 1019.92 1019.83 1019.65 1019.36 1018.96 1018.48 1017.95 1017.40 1016.89 1016.46 1016.16 1016.00 1015.99 1016.13 1016.40 1016.77 1017.22 1017.75 1018.34 1018.99
1017.18 1017.22 1017.34 1017.53 1017.79 1018.07 1018.37 1018.66 1018.93 1019.16 1019.35 1019.51 1019.64 1019.75 1019.85 1019.94 1020.03 1020.12 1020.23 1020.34 1020.45 1020.54 1020.59 1020.58 1020.46 1020.23 1019.85 1019.34 1018.72 1018.03 1017.31 1016.64 1016.06 1015.64 1015.38 1015.31 1015.43 1015.70 1016.12 1016.64 1017.26 1017.95 1018.71
1017.28 1017.35 1017.48 1017.68 1017.93 1018.21 1018.50 1018.79 1019.06 1019.30 1019.52 1019.71 1019.88 1020.03 1020.16 1020.29 1020.41 1020.54 1020.67 1020.81 1020.95 1021.07 1021.14 1021.13 1021.00 1020.72 1020.28 1019.67 1018.92 1018.09 1017.23 1016.41 1015.71 1015.18 1014.86 1014.76 1014.87 1015.18 1015.65 1016.26 1016.97 1017.76 1018.60
1017.47 1017.54 1017.68 1017.87 1018.10 1018.36 1018.63 1018.91 1019.18 1019.44 1019.68 1019.90 1020.10 1020.27 1020.42 1020.56 1020.69 1020.82 1020.97 1021.12 1021.28 1021.42 1021.51 1021.52 1021.39 1021.09 1020.60 1019.93 1019.10 1018.17 1017.21 1016.29 1015.50 1014.91 1014.55 1014.44 1014.57 1014.93 1015.48 1016.16 1016.96 1017.83 1018.74
1017.72 1017.79 1017.90 1018.07 1018.27 1018.50 1018.76 1019.03 1019.31 1019.58 1019.84 1020.08 1020.29 1020.47 1020.62 1020.74 1020.85 1020.96 1021.09 1021.24 1021.40 1021.56 1021.69 1021.72 1021.62 1021.34 1020.86 1020.17 1019.31 1018.34 1017.32 1016.36 1015.53 1014.92 1014.55 1014.47 1014.65 1015.06 1015.67 1016.43 1017.28 1018.19 1019.14
1018.00 1018.06 1018.15 1018.28 1018.45 1018.65 1018.89 1019.16 1019.44 1019.72 1020.00 1020.24 1020.45 1020.62 1020.73 1020.81 1020.87 1020.94 1021.03 1021.16 1021.33 1021.52 1021.68 1021.78 1021.74 1021.52 1021.09 1020.44 1019.61 1018.66 1017.66 1016.70 1015.89 1015.29 1014.96 1014.91 1015.14 1015.61 1016.26 1017.06 1017.94 1018.85 1019.77
1018.32 1018.36 1018.42 1018.51 1018.65 1018.82 1019.04 1019.30 1019.58 1019.87 1020.15 1020.39 1020.58 1020.70 1020.77 1020.79 1020.78 1020.79 1020.84 1020.96 1021.13 1021.35 1021.57 1021.74 1021.80 1021.68 1021.35 1020.81 1020.07 1019.20 1018.27 1017.38 1016.62 1016.08 1015.80 1015.79 1016.06 1016.55 1017.22 1018.01 1018.87 1019.74 1020.59
1018.67 1018.69 1018.72 1018.78 1018.88 1019.03 1019.23 1019.47 1019.74 1020.03 1020.29 1020.51 1020.67 1020.75 1020.75 1020.70 1020.63 1020.58 1020.59 1020.68 1020.87 1021.13 1021.43 1021.70 1021.87 1021.88 1021.70 1021.29 1020.69 1019.95 1019.15 1018.36 1017.70 1017.24 1017.01 1017.04 1017.32 1017.81 1018.45 1019.20 1019.98 1020.75 1021.50
1019.07 1019.07 1019.08 1019.11 1019.17 1019.29 1019.46 1019.68 1019.94 1020.20 1020.44 1020.63 1020.74 1020.76 1020.70 1020.59 1020.46 1020.36 1020.34 1020.43 1020.64 1020.95 1021.32 1021.69 1021.99 1022.15 1022.12 1021.89 1021.46 1020.88 1020.22 1019.58 1019.03 1018.65 1018.47 1018.53 1018.80 1019.25 1019.82 1020.46 1021.13 1021.77 1022.37
1019.52 1019.50 1019.49 1019.49 1019.53 1019.62 1019.76 1019.94 1020.16 1020.39 1020.59 1020.73 1020.80 1020.77 1020.66 1020.49 1020.32 1020.20 1020.16 1020.25 1020.49 1020.85 1021.29 1021.76 1022.17 1022.47 1022.59 1022.52 1022.27 1021.86 1021.37 1020.87 1020.44 1020.15 1020.02 1020.08 1020.31 1020.68 1021.15 1021.66 1022.18 1022.67 1023.11
1020.00 1019.98 1019.95 1019.94 1019.95 1020.00 1020.10 1020.24 1020.41 1020.59 1020.74 1020.83 1020.85 1020.78 1020.63 1020.45 1020.26 1020.12 1020.09 1020.19 1020.45 1020.84 1021.34 1021.87 1022.37 1022.77 1023.03 1023.11 1023.01 1022.77 1022.44 1022.08 1021.77 1021.55 1021.46 1021.51 1021.69 1021.96 1022.30 1022.67 1023.02 1023.35 1023.64
1020.50 1020.48 1020.45 1020.41 1020.40 1020.41 1020.46 1020.55 1020.66 1020.78 1020.87 1020.92 1020.89 1020.80 1020.64 1020.45 1020.27 1020.15 1020.13 1020.25 1020.52 1020.93 1021.44 1022.00 1022.54 1023.01 1023.35 1023.54 1023.57 1023.47 1023.28 1023.06 1022.85 1022.70 1022.64 1022.67 1022.79 1022.96 1023.17 1023.39 1023.59 1023.76 1023.92
1020.97 1020.97 1020.94 1020.89 1020.85 1020.83 1020.82 1020.85 1020.89 1020.94 1020.98 1020.98 1020.93 1020.82 1020.67 1020.50 1020.35 1020.25 1020.26 1020.39 1020.66 1021.05 1021.55 1022.09 1022.63 1023.11 1023.50 1023.75 1023.88 1023.89 1023.82 1023.71 1023.60 1023.51 1023.47 1023.49 1023.54 1023.62 1023.71 1023.79 1023.85 1023.90 1023.94
1021.41 1021.42 1021.39 1021.35 1021.28 1021.22 1021.16 1021.11 1021.09 1021.07 1021.05 1021.01 1020.94 1020.84 1020.71 1020.58 1020.47 1020.41 1020.44 1020.58 1020.83 1021.19 1021.63 1022.12 1022.62 1023.07 1023.45 1023.73 1023.91 1024.00 1024.03 1024.01 1023.98 1023.95 1023.94 1023.94 1023.95 1023.95 1023.94 1023.90 1023.85 1023.79 1023.75
1021.77 1021.81 1021.80 1021.75 1021.66 1021.56 1021.45 1021.34 1021.24 1021.16 1021.08 1021.01 1020.93 1020.84 1020.75 1020.67 1020.60 1020.59 1020.64 1020.78 1021.00 1021.31 1021.68 1022.09 1022.51 1022.90 1023.24 1023.52 1023.72 1023.87 1023.96 1024.02 1024.05 1024.08 1024.09 1024.08 1024.05 1023.99 1023.90 1023.78 1023.64 1023.50 1023.39
1022.08 1022.14 1022.14 1022.10 1022.00 1021.86 1021.69 1021.52 1021.36 1021.21 1021.09 1020.99 1020.91 1020.84 1020.79 1020.75 1020.74 1020.76 1020.84 1020.96 1021.15 1021.40 1021.69 1022.01 1022.33 1022.65 1022.94 1023.19 1023.40 1023.57 1023.71 1023.82 1023.90 1023.96 1023.99 1023.98 1023.93 1023.83 1023.68 1023.49 1023.30 1023.11 1022.96
1022.35 1022.43 1022.45 1022.40 1022.29 1022.12 1021.91 1021.69 1021.47 1021.27 1021.11 1020.99 1020.90 1020.85 1020.83 1020.84 1020.87 1020.93 1021.02 1021.14 1021.29 1021.47 1021.69 1021.92 1022.16 1022.40 1022.63 1022.84 1023.04 1023.22 1023.38 1023.52 1023.63 1023.71 1023.75 1023.74 1023.66 1023.53 1023.35 1023.13 1022.90 1022.68 1022.49
1022.62 1022.71 1022.74 1022.70 1022.57 1022.38 1022.13 1021.86 1021.60 1021.36 1021.17 1021.02 1020.94 1020.90 1020.91 1020.94 1021.01 1021.09 1021.19 1021.30 1021.42 1021.56 1021.70 1021.86 1022.03 1022.20 1022.38 1022.55 1022.73 1022.90 1023.06 1023.21 1023.33 1023.41 1023.45 1023.42 1023.34 1023.19 1022.99 1022.75 1022.50 1022.26 1022.06
1022.91 1023.01 1023.05 1023.00 1022.86 1022.65 1022.38 1022.08 1021.78 1021.51 1021.29 1021.13 1021.04 1021.01 1021.03 1021.08 1021.16 1021.26 1021.35 1021.46 1021.55 1021.65 1021.76 1021.86 1021.98 1022.10 1022.23 1022.37 1022.51 1022.66 1022.81 1022.93 1023.04 1023.10 1023.12 1023.09 1022.99 1022.83 1022.62 1022.38 1022.13 1021.90 1021.69
Thickness
5717 5717 5716 5715 5716 5716 5717 5718 5718 5717 5717 5718 5719 5719 5720 5719 5720 5720 5721 5721 5720 5719 5718 5716 5714 5713 5712 5710 5708 5707 5707 5706 5705 5704 5703 5702 5701 5699 5698 5697 5696 5695 5694
5713 5712 5711 5711 5711 5711 5713 5713 5713 5713 5714 5715 5716 5716 5716 5716 5717 5717 5718 5718 5718 5717 5715 5714 5713 5712 5710 5709 5707 5706 5705 5704 5703 5703 5702 5701 5699 5698 5696 5695 5694 5693 5692
5708 5707 5706 5706 5705 5706 5707 5708 5708 5708 5709 5710 5711 5712 5712 5712 5713 5713 5714 5714 5714 5713 5713 5712 5711 5710 5709 5708 5706 5705 5704 5703 5702 5701 5699 5698 5697 5696 5694 5693 5692 5691 5689
5703 5702 5701 5700 5700 5701 5702 5702 5703 5703 5704 5704 5705 5706 5708 5708 5709 5709 5710 5711 5710 5709 5709 5709 5709 5708 5707 5706 5705 5704 5702 5701 5700 5699 5698 5696 5695 5694 5692 5691 5689 5688 5687
5697 5697 5696 5695 5695 5695 5696 5697 5698 5698 5698 5699 5700 5701 5703 5704 5704 5705 5706 5706 5706 5706 5706 5705 5705 5704 5704 5703 5703 5702 5701 5700 5699 5697 5696 5694 5692 5691 5689 5688 5686 5685 5683
5692 5691 5691 5690 5691 5690 5690 5691 5692 5694 5694 5694 5696 5697 5698 5700 5701 5701 5701 5701 5702 5702 5702 5701 5700 5700 5700 5700 5700 5699 5698 5697 5696 5695 5694 5692 5690 5688 5686 5684 5682 5681 5680
5686 5685 5685 5685 5685 5685 5685 5687 5688 5688 5688 5690 5689 5689 5692 5694 5696 5697 5697 5697 5697 5697 5697 5696 5696 5696 5696 5696 5696 5695 5695 5694 5693 5692 5691 5689 5687 5685 5683 5681 5679 5677 5675
5679 5678 5678 5678 5678 5679 5680 5681 5682 5681 5682 5684 5683 5679 5678 5682 5687 5691 5691 5691 5691 5691 5691 5691 5691 5691 5691 5691 5691 5692 5691 5690 5690 5688 5687 5685 5683 5681 5679 5677 5675 5674 5672
5672 5671 5671 5672 5672 5672 5672 5675 5676 5675 5675 5678 5679 5676 5673 5672 5675 5681 5683 5684 5684 5684 5684 5684 5684 5684 5684 5685 5686 5686 5687 5687 5686 5685 5683 5682 5679 5677 5676 5673 5671 5669 5667
5664 5664 5665 5665 5665 5666 5666 5668 5670 5671 5672 5671 5673 5675 5674 5674 5670 5670 5674 5676 5677 5677 5677 5678 5678 5678 5678 5679 5680 5680 5681 5681 5681 5680 5679 5677 5675 5673 5671 5669 5667 5664 5662
5657 5657 5658 5658 5659 5659 5660 5662 5664 5665 5666 5666 5666 5667 5668 5668 5668 5666 5664 5666 5668 5669 5670 5671 5671 5672 5672 5672 5673 5674 5674 5675 5675 5674 5673 5672 5670 5667 5666 5664 5662 5659 5656
5648 5649 5650 5650 5651 5653 5654 5655 5657 5658 5659 5660 5660 5660 5660 5661 5661 5661 5660 5659 5659 5660 5663 5663 5664 5665 5666 5666 5666 5667 5667 5668 5668 5667 5666 5665 5664 5662 5660 5658 5656 5653 5650
5640 5641 5643 5643 5645 5646 5647 5648 5649 5651 5652 5652 5653 5654 5655 5656 5657 5657 5656 5654 5653 5653 5655 5656 5657 5658 5659 5659 5659 5660 5660 5661 5660 5659 5659 5658 5656 5654 5653 5650 5648 5645 5642
5632 5633 5635 5636 5637 5638 5639 5640 5641 5643 5644 5645 5646 5647 5648 5650 5651 5651 5651 5649 5647 5646 5647 5647 5649 5650 5650 5651 5651 5652 5652 5653 5652 5652 5651 5649 5648 5646 5644 5642 5639 5637 5634
5625 5626 5627 5628 5629 5631 5631 5632 5633 5634 5636 5637 5638 5640 5641 5643 5644 5645 5645 5645 5644 5641 5640 5639 5639 5641 5642 5643 5643 5644 5644 5644 5644 5643 5642 5640 5639 5637 5635 5633 5630 5628 5625
5617 5618 5618 5619 5620 5621 5622 5623 5624 5626 5627 5628 5630 5632 5633 5635 5636 5637 5638 5639 5639 5637 5635 5632 5631 5633 5633 5634 5635 5635 5636 5636 5635 5634 5632 5631 5629 5627 5625 5623 5621 5619 5617
5609 5609 5609 5610 5610 5611 5612 5614 5615 5616 5618 5619 5621 5623 5625 5626 5628 5629 5630 5631 5631 5631 5628 5625 5624 5624 5624 5624 5625 5625 5625 5625 5624 5623 5622 5621 5619 5617 5616 5614 5612 5610 5608
5600 5600 5600 5600 5601 5601 5602 5603 5604 5606 5607 5609 5611 5614 5616 5618 5619 5621 5622 5623 5623 5623 5621 5618 5616 5615 5615 5615 5615 5615 5615 5614 5613 5612 5611 5610 5608 5607 5606 5605 5603 5601 5599
5591 5591 5591 5591 5591 5591 5592 5593 5594 5595 5597 5599 5601 5604 5607 5609 5610 5612 5614 5614 5615 5615 5614 5612 5609 5607 5606 5606 5605 5604 5604 5603 5602 5601 5600 5599 5598 5597 5597 5596 5594 5593 5591
5582 5582 5581 5581 5581 5582 5583 5584 5584 5585 5587 5589 5591 5594 5597 5599 5601 5603 5605 5605 5606 5605 5604 5603 5601 5598 5597 5596 5596 5594 5593 5592 5592 5592 5591 5590 5589 5588 5588 5587 5586 5585 5583
5573 5573 5572 5572 5572 5573 5573 5574 5575 5576 5577 5579 5582 5584 5587 5590 5593 5594 5596 5596 5597 5596 5596 5594 5592 5590 5588 5587 5587 5586 5585 5583 5583 5584 5583 5582 5581 5581 5581 5581 5580 5579 5578
5563 5563 5563 5562 5562 5563 5564 5566 5566 5567 5569 5570 5572 5575 5577 5580 5583 5585 5587 5588 5589 5589 5588 5587 5585 5584 5582 5581 5580 5581 5579 5577 5576 5577 5576 5576 5576 5576 5576 5576 5576 5575 5574
5554 5554 5553 5553 5553 5554 5556 5558 5559 5559 5560 5561 5563 5565 5568 5570 5572 5575 5577 5579 5580 5581 5582 5581 5580 5579 5578 5578 5576 5575 5574 5574 5573 5574 5571 5570 5571 5571 5572 5573 5572 5572 5571
5545 5545 5545 5545 5545 5547 5548 5550 5551 5551 5551 5552 5554 5556 5557 5560 5563 5565 5567 5569 5571 5572 5574 5575 5576 5575 5574 5574 5573 5573 5571 5570 5569 5569 5569 5566 5567 5568 5570 5570 5570 5570 5569
5538 5537 5537 5537 5537 5539 5540 5541 5542 5542 5542 5543 5545 5547 5549 5551 5554 5556 5559 5560 5562 5564 5566 5567 5568 5569 5569 5569 5569 5568 5567 5566 5564 5564 5565 5564 5564 5564 5566 5568 5569 5569 5568
5531 5531 5531 5530 5531 5531 5533 5534 5535 5534 5534 5535 5537 5539 5541 5544 5546 5549 5551 5552 5554 5556 5559 5560 5561 5563 5564 5565 5566 5566 5565 5563 5562 5561 5563 5562 5562 5561 5562 5566 5568 5568 5568